Showing default

YAOGAN-31 C, 43277

Orbit data source: Space-Track

YAOGAN-31 C, 43277 is a payload satellite owned by PLA SSF (CN) in LEO that was launched on Tue, 10 Apr 2018 UTC via a CHANG ZHENG 4C launch vehicle from the Jiuquan Satellite Launch Center, China (JSC). Payload-class satellites include a variety of spacecraft equipped with specific instruments for various scientific and technological missions. These include communications satellites like Starlink; space stations such as the ISS; scientific satellites like the Hubble; Earth observation satellites from companies like Planet Labs, Umbra, and HawkEye 360; GPS; miniature CubeSats for education and research; and military/defense satellites.

Loading next visibility...
Identifier
43277, 2018-034C
Orbit
LEO
Country
Flag of CNCN / PRC
Related business
Manufacturer
DFH
Mission
Operational Defense Sigint
Bus & Motor
Unknown
Mass
~500 kg wet, ~500 kg dry
Launch date (UTC)
2018-04-10 (8 years ago)
Launch vehicle
CHANG ZHENG 4C
Launch site
Jiuquan Satellite Launch Center, China (JSC)
Object type
Payload
Rocket body
Debris
Shape & HBR
Box + 2 Pan, 0.5 m
Radar Cross Section
0.446 m², Large (>1 m²)

Expand to show TLE details & history
Last TLE update: 22 hours ago

TLE from 22 hours ago
0 YAOGAN-31 C
1 43277U 18034C   26172.52638990  .00000004  00000-0  12681-3 0  9994
2 43277  63.3961  79.4875 0275926   7.1532 353.3307 13.45444606402829
Epoch: 2026-06-21T12:38Z
TLE epoch observation values (Epoch: 2026-06-21T12:38:00.087Z)
Latitude
Longitude
-19.73826°
Altitude
886.248 km
Speed
7.51 km/s
True Right ascension
05h 17m 57s
True Declination
0° 00' 00"
Sunlit
Object was in daylight at epoch
Visualization orbit readout
Latitude
Unknown
Longitude
Unknown
Altitude
Unknown
Speed
Unknown
Apparent Right ascension
Unknown
Apparent Declination
Unknown
Sunlit
N/A
Visualization observer readout
Local Sidereal Time
21:42:33
Azimuth
Unknown
Elevation
Unknown
Doppler factor
Unknown
Orbital elements
Apogee altitude
1,293.902 km
Perigee altitude
881.887 km
Semi-major axis
7,466.032 km
Eccentricity
0.02759
Inclination
63.3961°
RAAN
79.4875°
Arg. of periapsis
7.1532°
True anomaly
352.95048°
Mean anomaly
353.3307°
Eccentric anomaly
353.14192°
Mean motion
3.36441 °/min
Orbital period
107 mins
BSTAR
0.00012681
Loading maneuver chart data...
Computing Atmospheric mass density...
Loading historical data...
Loading historical data...
Loading historical data...
Loading historical data...
Loading historical data...
Loading historical data...
Loading historical data...

Documentation

Showing up to 5 results
|